CT1OY Oeiras PT current weather conditions

sailwx.info

Wind from 025

Air temperature 9.4° C
Dewpoint 7.7° C

Last reported at 2017-Mar-26 08:24 UTC.
Time now 2017-Mar-26 09:22 UTC

Location: N 38°44' W 009°17'.
View on Google Maps.

See reports from other nearby stations

  
Tides and Currents Weather Stations Pressure Air Temp Water Temp Dewpoint Dewpoint Depression Visibility Wind Speed Wind Dir Waves Ship Positions
date/time (UTC)wind fromknots sea level pressurealtimeterstation pressurevisibilityair tempwater tempwave heightnotes
2017-Mar-26 08:24 025 9.4
2017-Mar-26 08:14 248 9.4
2017-Mar-26 08:04 242 8.9
2017-Mar-26 07:54 058 8.9
2017-Mar-26 07:24 075 8.9
2017-Mar-26 07:04 070 9.4
2017-Mar-26 06:14 095 9.4
2017-Mar-26 06:04 094 9.4
2017-Mar-26 05:34 095 9.4
2017-Mar-26 05:24 240 9.4
2017-Mar-26 05:14 240 8.9
2017-Mar-26 05:04 240 8.9
2017-Mar-26 04:54 240 8.9
2017-Mar-26 04:04 240 8.9
2017-Mar-26 03:54 240 8.9
2017-Mar-26 03:44 240 9.4
2017-Mar-26 03:34 240 9.4
2017-Mar-26 03:24 240 9.4
2017-Mar-26 03:14 240 9.4
2017-Mar-26 03:04 204 9.4
2017-Mar-26 02:44 079 10.0
2017-Mar-26 02:34 250 10.6
2017-Mar-26 02:24 108 11.1
2017-Mar-26 02:14 074 10.6
2017-Mar-26 01:54 217 11.1
2017-Mar-26 01:44 256 11.1
2017-Mar-26 01:34 259 11.1
2017-Mar-26 01:04 229 10.6
2017-Mar-26 00:54 197 10.6
2017-Mar-26 00:44 269 10.6
2017-Mar-26 00:34 115 10.6
2017-Mar-26 00:24 193 10.6
2017-Mar-26 00:14 259 10.6
2017-Mar-26 00:04 194 10.6
2017-Mar-25 23:54 179 10.6
2017-Mar-25 23:44 215 10.6
2017-Mar-25 23:24 166 10.0
2017-Mar-25 22:24 253 10.6
2017-Mar-25 22:14 162 10.6
2017-Mar-25 22:04 262 10.6
2017-Mar-25 21:54 252 10.6
2017-Mar-25 21:44 249 10.6
2017-Mar-25 21:34 256 10.0
2017-Mar-25 21:14 263 10.6
2017-Mar-25 20:44 285 10.6
2017-Mar-25 20:34 017 10.6
2017-Mar-25 20:24 131 10.0
2017-Mar-25 19:44 271 10.0
2017-Mar-25 19:24 226 10.0
2017-Mar-25 19:14 093 10.6
2017-Mar-25 19:04 171 10.6
2017-Mar-25 18:54 252 10.6
2017-Mar-25 18:44 219 10.6
2017-Mar-25 17:54 245 12.2
2017-Mar-25 17:34 252 12.2
2017-Mar-25 17:24 250 12.2
2017-Mar-25 17:04 114 12.8
2017-Mar-25 16:54 117 13.3
2017-Mar-25 16:44 274 13.9
2017-Mar-25 16:24 300 13.9
2017-Mar-25 15:54 274 3 gusting 13 13.9
2017-Mar-25 15:44 269 1 13.9
2017-Mar-25 15:34 203 13.9
2017-Mar-25 14:44 298 0 13.3
2017-Mar-25 14:34 225 13.9
2017-Mar-25 14:24 267 13.3
2017-Mar-25 14:14 212 13.3
2017-Mar-25 14:04 228 13.3
2017-Mar-25 13:54 228 13.3
2017-Mar-25 13:34 337 11.7
2017-Mar-25 13:24 237 12.2
2017-Mar-25 13:14 226 11.7
2017-Mar-25 13:04 287 11.7
2017-Mar-25 12:44 004 11.1
2017-Mar-25 12:24 241 1 11.1
2017-Mar-25 11:54 261 10.6
2017-Mar-25 11:44 106 11.1
2017-Mar-25 11:24 317 11.1
2017-Mar-25 11:14 252 10.6
2017-Mar-25 10:54 100 10.6
2017-Mar-25 10:44 072 10.6
2017-Mar-25 10:24 264 10.6
2017-Mar-25 10:04 229 10.6
2017-Mar-25 09:54 299 10.6
2017-Mar-25 09:34 051 10.0
2017-Mar-25 09:04 188 1 10.6
2017-Mar-25 08:44 276 10.0
2017-Mar-25 08:24 283 10.0
2017-Mar-25 07:54 115 8.3
2017-Mar-25 07:44 115 8.3
2017-Mar-25 06:54 228 7.8
2017-Mar-25 06:44 228 7.8
2017-Mar-25 06:34 228 7.8
2017-Mar-25 06:14 231 7.8
2017-Mar-25 05:54 187 7.8
2017-Mar-25 05:34 170 7.8
2017-Mar-25 05:24 150 7.8
2017-Mar-25 04:44 290 7.8
2017-Mar-25 04:34 276 7.8
2017-Mar-25 04:24 271 7.8
2017-Mar-25 04:14 255 8.3
2017-Mar-25 03:54 276 2 8.3
2017-Mar-25 03:44 278 8.9
2017-Mar-25 03:34 274 8.9
2017-Mar-25 03:14 274 8.9
2017-Mar-25 03:04 274 8.9
2017-Mar-25 02:54 274 8.9
2017-Mar-25 01:54 082 8.9
2017-Mar-25 01:44 082 8.9
2017-Mar-25 01:14 077 8.9
2017-Mar-25 01:04 080 8.9
2017-Mar-25 00:44 091 8.9
2017-Mar-25 00:04 082 0 8.3
2017-Mar-24 23:54 020 8.3
2017-Mar-24 23:14 080 8.9
2017-Mar-24 22:54 118 1 8.9
2017-Mar-24 22:44 354 8.9
2017-Mar-24 22:34 046 0 8.9
2017-Mar-24 22:24 138 3 8.9
2017-Mar-24 22:14 124 8.9
2017-Mar-24 21:34 087 8.9
2017-Mar-24 21:04 158 8.9
2017-Mar-24 20:54 339 8.3
2017-Mar-24 20:34 146 8.9
2017-Mar-24 20:24 124 8.9
2017-Mar-24 20:14 134 8.3
2017-Mar-24 20:04 124 8.3
2017-Mar-24 19:54 142 8.3
2017-Mar-24 19:34 144 8.3
2017-Mar-24 19:24 107 7.8
2017-Mar-24 19:14 086 7.8
2017-Mar-24 19:04 124 7.8
2017-Mar-24 18:44 130 7.8
2017-Mar-24 18:24 165 7.8
2017-Mar-24 18:14 134 7.8
2017-Mar-24 17:54 082 7.8
2017-Mar-24 17:44 236 7.8
2017-Mar-24 17:34 245 7.8
2017-Mar-24 17:14 224 7.8
2017-Mar-24 17:04 289 7.8
2017-Mar-24 16:54 254 7.8
2017-Mar-24 16:24 261 2 gusting 13 10.0
2017-Mar-24 16:04 153 11.1
2017-Mar-24 15:54 284 11.1
2017-Mar-24 15:44 304 11.1
2017-Mar-24 15:34 290 11.1
2017-Mar-24 15:24 314 11.1
2017-Mar-24 15:14 174 11.1
2017-Mar-24 14:54 250 11.1
2017-Mar-24 14:44 270 1 11.1
2017-Mar-24 14:34 289 11.7
2017-Mar-24 13:44 264 11.7
2017-Mar-24 13:34 261 0 11.7
2017-Mar-24 13:24 307 12.2
2017-Mar-24 12:44 259 12.2
2017-Mar-24 11:44 347 11.1
2017-Mar-24 11:04 298 8.9
2017-Mar-24 10:34 275 10.0
2017-Mar-24 10:24 281 8.9
2017-Mar-24 10:14 309 8.3
2017-Mar-24 10:04 270 8.3
2017-Mar-24 09:54 026 0 7.8
2017-Mar-24 09:34 266 8.3
2017-Mar-24 09:04 309 8.9